This demonstration page uses our WeatherBlox Daily Observations layout. Learn more.

Left ArrowRight Arrow

Hourly Observations for September 14, 2016

Temp ( °F °C ) Dew Point ( °F °C ) Humidity (%) Winds ( mph kmh ) Pressure ( in mb ) Visibility ( mi km ) Precip ( " mm )
12:51 am 00:51 Clear 67 19.4 56 13.3 68 68 SE 7 11 29.95 1014 10 16.0934 0 0
1:51 am 01:51 Clear 66 18.9 57 13.9 73 73 ESE 12 19 29.93 1014 10 16.0934 0 0
2:51 am 02:51 Clear 66 18.9 56 13.3 70 70 ESE 10 17 29.92 1013 10 16.0934 0 0
3:51 am 03:51 Clear 67 19.4 55 12.8 66 66 SE 12 19 29.93 1013 10 16.0934 0 0
4:51 am 04:51 Clear 65 18.3 55 12.8 70 70 VRB 6 9 29.97 1015 10 16.0934 0 0
5:51 am 05:51 Clear 62 16.7 57 13.9 84 84 Calm 29.98 1015 10 16.0934 0 0
6:51 am 06:51 Sunny 66 18.9 57 13.9 73 73 ENE 3 6 30.01 1016 10 16.0934 0 0
7:51 am 07:51 Sunny 67 19.4 57 13.9 71 71 E 3 6 30.01 1016 10 16.0934 0 0
8:51 am 08:51 Sunny 71 21.7 57 13.9 61 61 SE 10 17 30.01 1016 10 16.0934 0 0
9:51 am 09:51 undefined N/A N/A N/A undefined N/A N/A N/A 0 0
10:51 am 10:51 undefined N/A N/A N/A undefined N/A N/A N/A 0 0
11:51 am 11:51 undefined 83 28.3 58 14.4 43 43 S 6 9 29.96 1015 N/A 0 0
12:51 pm 12:51 Sunny 85 29.4 57 13.9 39 39 SSE 7 11 29.93 1013 10 16.0934 0 0
1:51 pm 13:51 Sunny 88 31.1 57 13.9 35 35 VRB 3 6 29.89 1012 10 16.0934 0 0
2:51 pm 14:51 Sunny 88 31.1 53 11.7 30 30 Calm 29.87 1011 10 16.0934 0 0
3:51 pm 15:51 Sunny 89 31.7 51 10.6 27 27 VRB 3 6 29.85 1011 10 16.0934 0 0
4:51 pm 16:51 Sunny 89 31.7 50 10 26 26 NNW 5 7 29.84 1011 10 16.0934 0 0
5:51 pm 17:51 Sunny 84 28.9 54 12.2 36 36 NNW 5 7 29.85 1011 10 16.0934 0 0
6:51 pm 18:51 Clear 81 27.2 60 15.6 49 49 NW 5 7 29.85 1011 10 16.0934 0 0
7:51 pm 19:51 Clear 77 25 62 16.7 60 60 NW 9 15 29.89 1012 10 16.0934 0 0
8:51 pm 20:51 Clear 76 24.4 58 14.4 54 54 WNW 9 15 29.88 1012 10 16.0934 0 0
9:51 pm 21:51 Clear 74 23.3 59 15 60 60 NNW 7 11 29.85 1011 10 16.0934 0 0
10:51 pm 22:51 Clear 71 21.7 60 15.6 68 68 SW 3 6 29.88 1012 10 16.0934 0 0
11:51 pm 23:51 Clear 69 20.6 60 15.6 73 73 SE 5 7 29.88 1012 10 16.0934 0 0

Powered by AerisWeather